Local Weather and METAR Reports

The data for these readings is taken from the NOAA Wesbite.  Please make sure you conduct your own weather check before flying.

METAR:

EGHI 291220Z 23012KT 8000 -DZ FEW010 BKN015 14/13 Q1013


QNH (Hectopascals): 1013


QNH (Inches Mercury): 29.91


TEMPERATURE (Degrees Celsius): 14°


DEW POINT TEMPERATURE (Degrees Celsius): 13°

Live Radar

Radar Data provided by FlightRadar24

Local NOTAMS

Whilst we will strive to keep local NOTAM information up to date, please make sure that you conduct your own review of local reports before flying.

Loading RSS Feed